• MPC Preparation (Info)

  • MPEC 2024-F41 : 2024 FB1

    The following Minor Planet Electronic Circular may be linked-to from your own Web pages, but must not otherwise be redistributed electronically.

    A form allowing access to any MPEC is at the bottom of this page.


    Read MPEC 2024-F40 Read MPEC 2024-F42


    M.P.E.C. 2024-F41                                Issued 2024 March 19, 20:42 UT
    
         The Minor Planet Electronic Circulars contain information on unusual
             minor planets, routine data on comets and natural satellites,
             and occasional editorial announcements.  They are published
        on behalf of Division F of the International Astronomical Union by the
              Minor Planet Center, Smithsonian Astrophysical Observatory,
                              Cambridge, MA 02138, U.S.A.
    			  
                 Prepared using the Tamkin Foundation Computer Network
    
                                  MPC@CFA.HARVARD.EDU
                URL https://www.minorplanetcenter.net/    ISSN 1523-6714
    
                                    2024 FB1                                 
    
    
    Observations:
         K24F01B* C2024 03 17.42842911 03 50.825+01 27 49.62         21.04wXEF041F51
         K24F01B  C2024 03 17.45271511 03 50.616+01 29 18.09         20.85wXEF041F51
         K24F01B  C2024 03 17.46483811 03 50.525+01 30 02.65         21.03wXEF041F51
         K24F01B 1C2024 03 18.03091 11 04 07.56 +02 05 37.3          20.6 VXEF041033
         K24F01B 1C2024 03 18.03248 11 04 07.59 +02 05 43.6          20.6 VXEF041033
         K24F01B 1C2024 03 18.03405 11 04 07.57 +02 05 49.8          20.6 VXEF041033
         K24F01B |C2024 03 18.06874011 04 14.470+02 10 18.80         20.5 GVEF041807
         K24F01B |C2024 03 18.07424011 04 14.510+02 10 41.60         20.8 GVEF041807
         K24F01B |C2024 03 18.07975011 04 14.530+02 11 04.00         20.7 GVEF041807
         K24F01B  C2024 03 18.45018311 04 22.421+02 35 37.07         20.59GVEF041F51
         K24F01B  C2024 03 18.45099611 04 22.425+02 35 40.49         20.57GVEF041F51
         K24F01B KC2024 03 19.17315611 04 54.36 +03 31 05.8                VEF041H21
         K24F01B KC2024 03 19.17530111 04 54.37 +03 31 16.2          20.6 GVEF041H21
         K24F01B KC2024 03 19.17819311 04 54.39 +03 31 30.7          20.4 GVEF041H21
         K24F01B 1C2024 03 19.28574411 05 02.547+03 41 03.60         20.48GVEF041T12
         K24F01B 1C2024 03 19.28757411 05 02.574+03 41 12.59         20.37GVEF041T12
    
    Observer details:
    033 Karl Schwarzschild Observatory, Tautenburg.  Observers S. Melnikov, C.
        Hogner, F. Ludwig, M. Hartmann, B. Stecklum.  Measurer B. Stecklum.
        1.34-m f/3 Schmidt + CCD.
    807 Cerro Tololo Observatory, La Serena.  Observers T. Linder, R. Holmes.
        0.61-m f/6.8 Ritchey-Chretien + CCD.
    F51 Pan-STARRS 1, Haleakala.  Observers J. Herman, T. Lowe, P. Minguez, A.
        Schultz, I. Smith.  Measurers K. Chambers, T. de Boer, J. Fairlamb, H.
        Gao, M. Huber, C.-C. Lin, E. Magnier, Y. Ramanjooloo, R. Wainscoat, R.
        Weryk.  1.8-m Ritchey-Chretien + CCD.
    H21 Astronomical Research Observatory, Westfield.  Observer R. Holmes.
        Measurers T. Linder, R. Holmes, L. Horn.  0.76-m f/3.0 astrograph + CCD.
    T12 University of Hawaii 88-inch telescope, Maunakea.  Observer J. Fairlamb.
        Measurers R. Weryk, J. Fairlamb, Y. Ramanjooloo, R. Wainscoat.  2.24-m
        f/10.1 reflector + CCD.
    
    Orbital elements:
    2024 FB1                                                 Earth MOID = 0.0184 AU
    Epoch 2024 Mar. 31.0 TT = JDT 2460400.5                 Veres                   
    M 345.93781              (2000.0)            P               Q                  
    n   0.37765636     Peri.   63.61657     -0.45766236     +0.88912442             
    a   1.8955628      Node   179.14140     -0.85104982     -0.43750495             
    e   0.5500162      Incl.    6.56103     -0.25740896     -0.13433982             
    P   2.61           H   25.31          G   0.15           U   8                  
    Residuals in seconds of arc
    240317 F51  0.1+  0.0     240318 807  0.4-  0.1-    240319 H21  0.0   0.0
    240317 F51  0.1+  0.2-    240318 807  0.1-  0.2+    240319 H21  0.1-  0.0
    240317 F51  0.1+  0.1+    240318 807  0.0   0.1+    240319 T12  0.0   0.0
    240318 033  0.3+  0.4+    240318 F51  0.2-  0.2-    240319 T12  0.1+  0.4-
    240318 033  0.5+  0.3+    240318 F51  0.1-  0.3-
    240318 033  0.0   0.3+    240319 H21  0.1+  0.2+
    
    Ephemeris:
    2024 FB1                 a,e,i = 1.90, 0.55, 7                   q = 0.8530
    Date    TT    R. A. (2000) Decl.     Delta      r    Elong.  Phase     V
    2024 02 18    11 00 54.8 -05 31 46   0.3453  1.3134   157.2    16.9    24.5
    ...
    2024 03 04    11 02 09.2 -04 37 47   0.2025  1.1909   168.9     9.2    22.8
    ...
    2024 03 12    11 02 28.9 -02 16 37   0.1351  1.1274   171.3     7.7    21.8
    ...
    2024 03 18    11 04 08.8 +02 04 45   0.08778 1.0814   168.2    10.8    20.9
    2024 03 19    11 04 45.5 +03 18 01   0.08015 1.0739   167.2    11.8    20.7
    2024 03 20    11 05 32.7 +04 46 24   0.07262 1.0664   166.0    13.0    20.5
    ...
    2024 03 26    11 21 37.1 +28 15 13   0.03074 1.0233   146.5    32.6    19.2
    ...
    2024 04 03    22 33 33.4 +37 35 28   0.04195 0.9705    44.7   133.6    24.4
    ...
    2024 04 18    22 56 56.2 +17 03 21   0.1552  0.8929    41.1   132.4    27.0
    
    M. P. C. Staff               (C) Copyright 2024 MPC           M.P.E.C. 2024-F41
    


    Read MPEC 2024-F40 Read MPEC 2024-F42


    MPEC number:

    Enter an MPEC number in one of the following forms:

    • 1997-B01 (the full form)
    • J97B01 (the packed version of the full form)
    • B01 (the abbreviated form)